• In Netherlands
  • List of Countries
  • For 7 days
  • Water Temperature
  • Satellite Maps
  • Weather Map
  • Weather Widgets
  • user-avatar
    Login

    Hourly Weather Vanadzor

    Today, 18 January, Thursday

    Time Temperature Precipitation Wind Pressure Humidity
    00:00 -6°C° 0.1 mm 2 mps 630 mmHg 80%
    01:00 -6°C° 0.2 mm 2 mps 629 mmHg 80%
    02:00 -6°C° 0.2 mm 2 mps 629 mmHg 81%
    03:00 -5°C° 0 mm 2 mps 629 mmHg 83%
    04:00 -5°C° 0.2 mm 2 mps 629 mmHg 83%
    05:00 -5°C° 0.2 mm 2 mps 628 mmHg 84%
    06:00 -5°C° 0.2 mm 2 mps 628 mmHg 85%
    07:00 -5°C° 0.2 mm 2 mps 628 mmHg 85%
    08:00 -4°C° 0.2 mm 2 mps 628 mmHg 84%
    09:00 -4°C° 0 mm 2 mps 628 mmHg 83%
    10:00 -4°C° 0.6 mm 3 mps 628 mmHg 84%
    11:00 -4°C° 0.6 mm 3 mps 627 mmHg 84%
    12:00 -2°C° 0.6 mm 3 mps 627 mmHg 85%
    13:00 -2°C° 0.4 mm 3 mps 627 mmHg 84%
    14:00 -2°C° 0.4 mm 3 mps 626 mmHg 83%
    15:00 -2°C° 0.4 mm 3 mps 626 mmHg 82%
    16:00 -2°C° 0.3 mm 3 mps 626 mmHg 84%
    17:00 -4°C° 0.3 mm 3 mps 626 mmHg 87%
    18:00 -4°C° 0.3 mm 3 mps 626 mmHg 89%
    19:00 -4°C° 0.2 mm 3 mps 626 mmHg 88%
    20:00 -4°C° 0.2 mm 3 mps 626 mmHg 87%
    21:00 -4°C° 0.2 mm 3 mps 626 mmHg 86%
    22:00 -4°C° 0.1 mm 2 mps 626 mmHg 86%
    23:00 -4°C° 0.1 mm 2 mps 625 mmHg 86%

    Tomorrow, 19 January, Friday

    Time Temperature Precipitation Wind Pressure Humidity
    00:00 -4°C° 0.1 mm 2 mps 625 mmHg 86%
    01:00 -4°C° 0 mm 2 mps 625 mmHg 87%
    02:00 -5°C° 0 mm 2 mps 625 mmHg 87%
    03:00 -5°C° 0 mm 2 mps 625 mmHg 87%
    04:00 -5°C° 0 mm 2 mps 625 mmHg 86%
    05:00 -3°C° 0 mm 1 mps 626 mmHg 86%
    06:00 -3°C° 0 mm 1 mps 626 mmHg 85%
    07:00 -2°C° 0 mm 1 mps 626 mmHg 83%
    08:00 -1°C° 0 mm 1 mps 627 mmHg 81%
    09:00 0°C° 0 mm 1 mps 627 mmHg 80%
    10:00 +1°C° 0 mm 1 mps 627 mmHg 77%
    11:00 +2°C° 0 mm 1 mps 628 mmHg 74%
    12:00 +4°C° 0 mm 1 mps 628 mmHg 72%
    13:00 +4°C° 0 mm 1 mps 628 mmHg 72%
    14:00 +4°C° 0 mm 1 mps 628 mmHg 73%
    15:00 +4°C° 0 mm 1 mps 628 mmHg 74%
    16:00 +3°C° 0 mm 1 mps 628 mmHg 76%
    17:00 +1°C° 0 mm 1 mps 628 mmHg 77%
    18:00 0°C° 0 mm 1 mps 628 mmHg 79%
    19:00 0°C° 0 mm 1 mps 629 mmHg 78%
    20:00 0°C° 0 mm 1 mps 629 mmHg 78%
    21:00 +1°C° 0 mm 1 mps 629 mmHg 77%
    22:00 0°C° 0 mm 1 mps 630 mmHg 77%
    23:00 0°C° 0 mm 1 mps 630 mmHg 77%

    Day after tomorrow, 20 January, Saturday

    Time Temperature Precipitation Wind Pressure Humidity
    00:00 0°C° 0 mm 1 mps 630 mmHg 78%
    01:00 0°C° 0 mm 1 mps 630 mmHg 78%
    02:00 0°C° 0 mm 1 mps 631 mmHg 79%
    03:00 -2°C° 0 mm 2 mps 631 mmHg 80%
    04:00 -3°C° 0.1 mm 2 mps 631 mmHg 80%
    05:00 -3°C° 0.1 mm 2 mps 631 mmHg 81%
    06:00 -3°C° 0.1 mm 2 mps 632 mmHg 81%
    07:00 -3°C° 0 mm 2 mps 632 mmHg 79%
    08:00 -2°C° 0 mm 2 mps 633 mmHg 77%
    09:00 -2°C° 0 mm 2 mps 633 mmHg 74%
    10:00 -1°C° 0 mm 2 mps 633 mmHg 72%
    11:00 +1°C° 0 mm 2 mps 634 mmHg 70%
    12:00 +2°C° 0 mm 2 mps 634 mmHg 68%
    13:00 +3°C° 0 mm 1 mps 634 mmHg 69%
    14:00 +3°C° 0 mm 1 mps 634 mmHg 70%
    15:00 +3°C° 0 mm 1 mps 634 mmHg 70%
    16:00 +2°C° 0 mm 1 mps 634 mmHg 73%
    17:00 0°C° 0 mm 1 mps 634 mmHg 75%
    18:00 -2°C° 0 mm 1 mps 634 mmHg 77%
    19:00 -2°C° 0 mm 1 mps 634 mmHg 75%
    20:00 -2°C° 0 mm 1 mps 634 mmHg 74%
    21:00 -3°C° 0 mm 1 mps 635 mmHg 72%
    22:00 -5°C° 0 mm 2 mps 635 mmHg 71%
    23:00 -5°C° 0 mm 2 mps 635 mmHg 71%

    21 January, Sunday

    Time Temperature Precipitation Wind Pressure Humidity
    00:00 -5°C° 0 mm 2 mps 635 mmHg 71%
    01:00 -5°C° 0 mm 2 mps 635 mmHg 71%
    02:00 -5°C° 0 mm 2 mps 635 mmHg 72%
    03:00 -5°C° 0 mm 2 mps 635 mmHg 72%
    04:00 -5°C° 0 mm 2 mps 635 mmHg 71%
    05:00 -5°C° 0 mm 2 mps 635 mmHg 71%
    06:00 -5°C° 0 mm 2 mps 635 mmHg 70%
    07:00 -5°C° 0 mm 2 mps 635 mmHg 68%
    08:00 -4°C° 0 mm 2 mps 636 mmHg 66%
    09:00 -3°C° 0 mm 2 mps 636 mmHg 64%
    10:00 -2°C° 0 mm 2 mps 636 mmHg 62%
    11:00 +1°C° 0 mm 2 mps 636 mmHg 61%
    12:00 +2°C° 0 mm 2 mps 636 mmHg 59%
    13:00 +2°C° 0 mm 2 mps 636 mmHg 60%
    14:00 +2°C° 0 mm 2 mps 635 mmHg 61%
    15:00 +2°C° 0 mm 2 mps 635 mmHg 61%
    16:00 +1°C° 0 mm 2 mps 635 mmHg 61%
    17:00 -2°C° 0 mm 2 mps 635 mmHg 61%
    18:00 -3°C° 0 mm 2 mps 634 mmHg 61%
    19:00 -3°C° 0 mm 2 mps 634 mmHg 60%
    20:00 -3°C° 0 mm 2 mps 634 mmHg 58%
    21:00 -4°C° 0 mm 2 mps 634 mmHg 57%
    22:00 -3°C° 0 mm 2 mps 634 mmHg 57%
    23:00 -3°C° 0 mm 2 mps 634 mmHg 58%

    22 January, Monday

    Time Temperature Precipitation Wind Pressure Humidity
    00:00 -3°C° 0 mm 2 mps 634 mmHg 58%
    01:00 -3°C° 0 mm 2 mps 633 mmHg 59%
    02:00 -3°C° 0 mm 2 mps 633 mmHg 59%
    03:00 -3°C° 0 mm 2 mps 633 mmHg 60%
    04:00 -3°C° 0 mm 2 mps 633 mmHg 59%
    05:00 -3°C° 0 mm 2 mps 632 mmHg 59%
    06:00 -3°C° 0 mm 2 mps 632 mmHg 59%
    07:00 -2°C° 0 mm 2 mps 632 mmHg 59%
    08:00 -2°C° 0 mm 2 mps 632 mmHg 59%
    09:00 -1°C° 0 mm 2 mps 632 mmHg 59%
    10:00 +1°C° 0 mm 2 mps 632 mmHg 59%
    11:00 +2°C° 0 mm 2 mps 632 mmHg 58%
    12:00 +3°C° 0 mm 2 mps 632 mmHg 58%
    13:00 +3°C° 0 mm 2 mps 631 mmHg 58%
    14:00 +3°C° 0 mm 2 mps 631 mmHg 59%
    15:00 +2°C° 0 mm 2 mps 630 mmHg 59%
    16:00 +1°C° 0 mm 2 mps 630 mmHg 59%
    17:00 -2°C° 0 mm 2 mps 630 mmHg 60%
    18:00 -3°C° 0 mm 2 mps 630 mmHg 60%
    19:00 -3°C° 0 mm 2 mps 630 mmHg 59%
    20:00 -3°C° 0 mm 2 mps 630 mmHg 58%
    21:00 -4°C° 0 mm 2 mps 630 mmHg 57%
    22:00 -4°C° 0 mm 2 mps 630 mmHg 58%
    23:00 -4°C° 0 mm 2 mps 630 mmHg 59%

    23 January, Tuesday

    Time Temperature Precipitation Wind Pressure Humidity
    00:00 -4°C° 0 mm 2 mps 630 mmHg 61%
    01:00 -4°C° 0 mm 2 mps 630 mmHg 61%
    02:00 -4°C° 0 mm 2 mps 630 mmHg 62%
    03:00 -5°C° 0 mm 2 mps 630 mmHg 62%
    04:00 -5°C° 0 mm 2 mps 630 mmHg 62%
    05:00 -5°C° 0 mm 2 mps 629 mmHg 62%
    06:00 -5°C° 0 mm 2 mps 629 mmHg 62%
    07:00 -4°C° 0 mm 2 mps 630 mmHg 62%
    08:00 -3°C° 0 mm 2 mps 630 mmHg 62%
    09:00 -4°C° 0 mm 3 mps 630 mmHg 62%
    10:00 -2°C° 0 mm 3 mps 630 mmHg 60%
    11:00 0°C° 0 mm 3 mps 630 mmHg 59%
    12:00 +1°C° 0 mm 3 mps 630 mmHg 58%
    13:00 +1°C° 0 mm 3 mps 630 mmHg 59%
    14:00 +2°C° 0 mm 2 mps 630 mmHg 60%
    15:00 +2°C° 0 mm 2 mps 629 mmHg 61%
    16:00 +1°C° 0 mm 2 mps 629 mmHg 63%
    17:00 -1°C° 0 mm 2 mps 629 mmHg 65%
    18:00 -2°C° 0 mm 2 mps 629 mmHg 67%
    19:00 -2°C° 0.1 mm 2 mps 629 mmHg 68%
    20:00 -2°C° 0.1 mm 2 mps 629 mmHg 69%
    21:00 -2°C° 0.1 mm 2 mps 630 mmHg 69%
    22:00 -2°C° 0 mm 2 mps 630 mmHg 70%
    23:00 -3°C° 0 mm 2 mps 630 mmHg 71%
    Show more